Regional Weather Roundup
Issued by NWS

Home | Current Version | Previous Version | Graphics & Text | Print | Product List | Glossary On
Versions: 1 2 3 4 5 6 7 8 9 10 11 12 13 14 15 16 17 18 19 20 21 22 23 24 25 26 27 28 29 30 31 32 33 34 35 36 37 38 39 40 41 42 43 44 45 46 47 48 49 50
000
ASUS43 KLSX 250807
RWRMO

WEATHER SUMMARY FOR MISSOURI
NATIONAL WEATHER SERVICE SPRINGFIELD MO
300 AM CDT SAT OCT 25 2014

NOTE: "FAIR" INDICATES FEW OR NO CLOUDS BELOW 12,000 FEET WITH NO
       SIGNIFICANT WEATHER AND/OR OBSTRUCTIONS TO VISIBILITY.
       CURRENT SKY AND/OR WEATHER CONDITIONS ARE NOT AVAILABLE FOR
       CHILLICOTHE AND FARMINGTON.

MOZ001>031-035>038-043-044-053-054-250900-
...NORTHERN AND WESTERN MISSOURI...

CITY           SKY/WX    TMP DP  RH WIND       PRES   REMARKS
KANSAS CTY INT CLEAR     60  59  96 W7        30.02R
KANSAS C DTWN  CLEAR     64  60  87 CALM      30.01R
LEE`S SUMMIT   CLEAR     61  59  93 SW8       30.01R
ST JOSEPH      FOG       53  53 100 CALM      30.02R VSB<1/4
CHILLICOTHE      N/A     54  53  97 CALM      30.00S
KIRKSVILLE     FOG       53  53 100 SW5       29.99S VSB 1/4

$$
MOZ066>068-077>081-088>096-101>105-250900-
...SOUTHWEST MISSOURI...

CITY           SKY/WX    TMP DP  RH WIND       PRES   REMARKS
SPRINGFIELD    CLEAR     58  56  93 SW7       30.05S
JOPLIN         CLEAR     65  60  84 SW10      30.05S

$$
MOZ032>034-039>042-045>050-055>058-069>072-250900-
...CENTRAL MISSOURI...

CITY           SKY/WX    TMP DP  RH WIND       PRES   REMARKS
COLUMBIA       CLEAR     62  60  93 CALM      30.00S
JEFFERSON CITY CLEAR     60  58  92 CALM      29.99S
ROLLA          CLEAR     59  57  93 SW9       30.00S
SEDALIA        MOCLDY    65  60  84 SW10      30.01S
WHITEMAN AFB   CLEAR     61  58  92 SW7       30.01R
OSAGE BEACH    PTCLDY    59  55  88 CALM      30.02S

$$
MOZ051-052-059>065-250900-
...EAST CENTRAL MISSOURI...

CITY           SKY/WX    TMP DP  RH WIND       PRES   REMARKS
ST LOUIS INTL  PTCLDY    63  57  81 W6        29.98S
SPIRIT OF STL  CLEAR     63  58  83 SW6       29.97S
ST CHARLES     CLEAR     54  51  90 CALM      29.98R

$$
MOZ072>076-082>087-097>100-106>115-250900-
...SOUTH CENTRAL AND SOUTHEAST MISSOURI...

CITY           SKY/WX    TMP DP  RH WIND       PRES   REMARKS
CAPE GIRARDEAU PTCLDY    52  51  97 SE3       30.03F
FARMINGTON     CLEAR     57  55  94 CALM      30.04S
POPLAR BLUFF   CLEAR     52  49  89 CALM      30.04S FOG
WEST PLAINS    CLEAR     58  56  93 W7        30.07S

$$



USA.gov is the U.S. government's official web portal to all federal, state and local government web resources and services.